Location: West Sayville
(40.7279°N, 73.0976°W)
Time: 05:18:24
(UTC+00:00)

SKYMED 2 - Pass Details

Date: 29 October 2020
Orbit: 621 x 623 km, 97.9° (Epoch: 29 November)

Event Time Altitude Azimuth Distance (km) Brightness Sun altitude
Rises 22:43:08 0° 16° (NNE) 2,911 6.8 -10.3°
Reaches altitude 10° 22:45:22 10° 20° (NNE) 1,999 5.9 -10.7°
Maximum altitude 22:49:40 60° 101° (E) 716 3.6 -11.5°
Drops below altitude 10° 22:53:55 10° 181° (S) 1,983 6.3 -12.3°
Sets 22:56:08 0° 185° (S) 2,884 7.2 -12.7°
